Stations météo

réclame
Mon MeteoGroup
Landivisiau, France (7106): Température de l'air & dewpoint: 11.06.2019 21:00:00 - 17.06.2019 21:00:00 (CEST)Landivisiau, France (7106): Température de l'air 5cm: 11.06.2019 21:00:00 - 17.06.2019 21:00:00 (CEST)Landivisiau, France (7106): Température de l'air -20cm: 11.06.2019 21:00:00 - 17.06.2019 21:00:00 (CEST)Landivisiau, France (7106): Vitesse du vent & gusts: 11.06.2019 21:00:00 - 17.06.2019 21:00:00 (CEST)Landivisiau, France (7106): Direction du vent: 11.06.2019 21:00:00 - 17.06.2019 21:00:00 (CEST)Landivisiau, France (7106): reduced air pressure: 11.06.2019 21:00:00 - 17.06.2019 21:00:00 (CEST)Landivisiau, France (7106): visibility: 11.06.2019 21:00:00 - 17.06.2019 21:00:00 (CEST)Landivisiau, France (7106): Quantités de précipitations: 11.06.2019 21:00:00 - 17.06.2019 21:00:00 (CEST)
Date & Time tt [°C] td [°C] tt 5cm [°C] tt -20cm [°C] ff [km/h] ff [knt] fx [km/h] fx [knt] dd ppp [hPa] vv [km] rr [mm]
17.06.2019 21:00:00 16,2 9,8 - - 15 8 - - NNE 1016,7 25 -
17.06.2019 20:00:00 16,5 10,6 17,2 16,1 12 7 - - NE 1017,0 43 0,0
17.06.2019 19:00:00 19,7 10,1 21,5 16,0 7 4 - - W 1017,0 46 0,0
17.06.2019 18:00:00 20,0 10,1 24,1 15,9 13 7 - - WSW 1017,1 20 0,0
17.06.2019 17:00:00 19,9 9,7 20,5 15,7 15 8 - - SSW 1017,7 24 0,0
17.06.2019 16:00:00 18,6 9,9 20,0 15,5 16 9 - - WSW 1017,9 26 0,0
17.06.2019 15:00:00 19,3 9,8 21,1 15,3 16 8 - - SW 1018,0 23 0,0
17.06.2019 14:00:00 18,4 9,5 20,9 15,2 18 10 - - WSW 1018,2 10 0,0
17.06.2019 13:00:00 17,9 10,5 19,4 15,1 16 8 - - WSW 1018,6 32 0,0
17.06.2019 12:00:00 16,7 10,8 17,7 15,0 15 8 - - SSW 1018,8 10 0,0
17.06.2019 11:00:00 16,3 10,6 17,6 15,0 15 8 - - S 1018,8 33 0,0
17.06.2019 10:00:00 16,0 11,4 16,5 15,0 16 9 - - S 1019,1 23 0,0
17.06.2019 09:00:00 14,3 12,2 14,3 15,0 13 7 - - S 1019,1 20 0,0
17.06.2019 08:00:00 12,9 12,3 11,8 15,1 7 4 - - S 1019,1 10 0,0
17.06.2019 07:00:00 12,2 11,7 11,0 15,1 13 7 - - S 1019,0 9 0,0
17.06.2019 06:00:00 11,9 11,4 10,4 15,1 7 4 - - SSW 1019,2 9 0,0
17.06.2019 05:00:00 12,1 11,6 10,0 15,2 7 4 - - S 1019,1 10 0,0
17.06.2019 04:00:00 12,1 11,6 10,9 15,3 10 5 - - SSW 1019,4 12 0,0
17.06.2019 03:00:00 12,1 11,5 10,8 15,3 9 5 - - SSW 1019,6 12 0,0
17.06.2019 02:00:00 12,0 11,2 11,3 15,4 11 6 - - S 1019,8 12 0,0
17.06.2019 01:00:00 12,4 11,5 10,7 15,4 14 7 - - S 1019,9 15 0,0
17.06.2019 00:00:00 12,2 11,3 10,8 15,5 11 6 - - S 1020,2 16 0,0
16.06.2019 23:00:00 12,8 11,4 11,4 15,5 10 5 - - SSW 1020,1 19 0,0
16.06.2019 22:00:00 14,1 10,9 13,2 15,5 15 8 - - SW 1019,8 29 0,0
16.06.2019 21:00:00 14,7 10,5 14,5 15,5 18 10 - - SSW 1019,4 26 0,0
16.06.2019 20:00:00 15,5 11,5 16,0 15,5 22 12 - - SSW 1019,3 22 0,0
16.06.2019 19:00:00 15,4 11,4 15,8 15,5 25 14 - - SW 1019,3 33 0,0
16.06.2019 18:00:00 15,5 11,1 16,0 15,4 28 15 - - SSW 1019,5 19 0,0
16.06.2019 17:00:00 15,8 11,2 16,2 15,3 29 16 - - SW 1019,5 19 0,0
16.06.2019 16:00:00 16,6 11,3 17,9 15,3 30 16 - - WSW 1019,5 19 0,0
16.06.2019 15:00:00 16,6 11,5 18,2 15,2 26 14 - - SW 1019,3 20 0,0
16.06.2019 14:00:00 16,8 11,9 17,3 15,1 29 15 - - SW 1019,2 20 0,0
16.06.2019 13:00:00 16,0 12,5 17,4 15,1 29 15 - - SW 1019,2 22 0,0
16.06.2019 12:00:00 15,7 12,6 17,0 15,1 23 12 - - SW 1019,1 19 0,0
16.06.2019 11:00:00 14,8 12,5 14,5 15,0 27 15 - - SW 1019,0 13 0,0
16.06.2019 10:00:00 15,4 12,7 16,2 15,0 23 12 - - SW 1018,6 41 0,0
16.06.2019 09:00:00 14,8 12,7 14,1 15,0 21 12 - - SSW 1018,2 31 0,0
16.06.2019 08:00:00 13,8 12,4 13,4 15,1 21 12 - - SW 1018,0 27 0,0
16.06.2019 07:00:00 13,7 12,4 13,1 15,1 22 12 - - SW 1017,3 20 0,0
16.06.2019 06:00:00 13,6 12,7 13,2 15,1 25 14 - - SW 1017,1 13 0,0
16.06.2019 05:00:00 13,6 12,7 13,2 15,2 25 14 - - SW 1016,9 4,7 0,2
16.06.2019 04:00:00 13,6 12,7 13,2 15,2 22 12 - - SW 1017,1 9 0,0
16.06.2019 03:00:00 13,6 12,3 13,0 15,2 18 10 - - SW 1017,2 20 0,0
16.06.2019 02:00:00 13,6 12,3 12,8 15,3 19 10 - - SW 1017,2 29 0,0
16.06.2019 01:00:00 13,6 12,3 12,9 15,3 22 12 - - SW 1016,9 19 0,0
16.06.2019 00:00:00 13,4 12,3 12,9 15,3 15 8 - - SW 1016,7 12 0,0
15.06.2019 23:00:00 13,4 12,3 12,5 15,3 21 11 - - WSW 1016,5 19 0,0
15.06.2019 22:00:00 13,5 12,2 12,8 15,3 21 11 - - SW 1015,9 32 0,0
15.06.2019 21:00:00 14,0 12,6 13,4 15,3 28 15 - - WSW 1015,7 34 0,2
15.06.2019 20:00:00 14,0 13,0 13,6 15,2 23 13 - - SW 1015,1 4,5 0,2
15.06.2019 19:00:00 13,6 12,8 13,6 15,1 20 11 - - WSW 1015,0 3,6 1,6
15.06.2019 18:00:00 14,8 11,9 14,4 15,0 25 14 - - WSW 1014,9 21 0,0
15.06.2019 17:00:00 16,7 12,0 18,7 14,9 31 17 - - SW 1014,6 14 0,0
15.06.2019 16:00:00 17,1 12,8 16,2 14,8 31 17 - - SW 1014,1 17 0,0
15.06.2019 15:00:00 15,4 13,2 13,5 14,7 32 17 - - SW 1013,8 20 3,9
15.06.2019 14:00:00 13,8 12,5 13,3 14,7 21 11 - - SW 1013,4 0,9 3,9
15.06.2019 13:00:00 15,5 12,8 16,0 14,6 24 13 - - SSW 1013,2 19 0,0
15.06.2019 12:00:00 14,7 12,9 14,5 14,6 26 14 - - SW 1013,1 21 0,0
15.06.2019 11:00:00 14,0 12,9 13,3 14,6 24 13 - - SW 1013,0 18 0,2
15.06.2019 10:00:00 13,2 12,4 12,2 14,7 26 14 - - SW 1012,8 16 0,2
15.06.2019 09:00:00 12,3 11,8 11,7 14,7 20 11 - - SSW 1012,4 2,9 0,6
15.06.2019 08:00:00 11,7 11,1 10,9 14,8 22 12 - - SSW 1012,1 7 0,4
15.06.2019 07:00:00 11,6 10,2 10,9 14,8 25 13 - - SSW 1012,1 12 0,2
15.06.2019 06:00:00 12,2 10,4 11,4 14,9 24 13 - - SSW 1012,0 18 0,0
15.06.2019 05:00:00 12,3 10,2 11,4 15,0 22 12 - - SW 1012,0 30 0,0
15.06.2019 04:00:00 12,4 10,6 11,7 15,0 20 11 - - SSW 1012,2 47 0,0
15.06.2019 03:00:00 12,0 11,0 - - 15 8 - - SSW - 10 -
15.06.2019 02:00:00 11,6 10,3 10,4 15,1 12 7 - - S 1012,8 35 0,0
15.06.2019 01:00:00 11,7 10,3 10,5 15,2 13 7 - - SSW 1012,9 10 0,0
15.06.2019 00:00:00 11,9 10,3 10,7 15,2 11 6 - - S 1013,1 48 0,0
14.06.2019 23:00:00 12,7 9,7 11,6 15,3 16 8 - - SSW 1012,6 55 0,0
14.06.2019 22:00:00 13,5 9,3 13,1 15,2 19 11 - - SW 1012,3 49 0,0
14.06.2019 21:00:00 14,1 9,7 14,1 15,3 21 11 39 21 SW 1012,4 10 0,0
14.06.2019 20:00:00 14,2 9,4 14,6 15,2 24 13 - - SSW 1012,4 17 0,0
14.06.2019 19:00:00 13,4 10,2 12,9 15,1 23 12 - - SSW 1012,3 32 0,0
14.06.2019 18:00:00 15,4 9,1 16,2 15,1 24 13 - - SSW 1012,1 24 0,0
14.06.2019 17:00:00 16,2 9,4 17,1 15,0 27 15 - - WSW 1012,1 28 0,0
14.06.2019 16:00:00 15,3 10,5 14,0 14,9 18 10 - - SW 1012,0 40 0,0
14.06.2019 15:00:00 14,5 10,3 15,4 14,8 26 14 - - WSW 1012,2 20 0,0
14.06.2019 14:00:00 15,5 9,2 17,0 14,7 26 14 - - WSW 1012,1 20 0,0
14.06.2019 13:00:00 15,6 9,0 15,7 14,6 29 16 - - SW 1012,0 19 0,0
14.06.2019 12:00:00 14,5 9,7 14,8 14,6 25 13 - - SW 1011,9 26 0,0
14.06.2019 11:00:00 15,5 10,0 15,4 14,6 29 15 - - SW 1011,8 14 0,0
14.06.2019 10:00:00 13,8 10,2 12,8 14,6 24 13 - - WSW 1011,5 18 0,0
14.06.2019 09:00:00 12,7 10,9 11,7 14,7 19 10 - - SW 1011,4 30 0,0
14.06.2019 08:00:00 11,8 10,5 11,5 14,7 16 9 - - SW 1011,2 32 0,0
14.06.2019 07:00:00 12,2 11,3 11,6 14,7 17 9 - - SW 1010,7 26 0,4
14.06.2019 06:00:00 12,3 11,2 11,7 14,8 17 9 - - SW 1010,4 4,2 0,0
14.06.2019 05:00:00 12,4 11,0 11,7 14,8 19 11 - - SW 1010,3 42 0,0
14.06.2019 04:00:00 12,3 11,0 11,7 14,9 18 10 - - SSW 1010,4 18 0,0
14.06.2019 03:00:00 11,9 10,5 10,8 15,0 14 8 - - SSW 1010,9 53 0,0
14.06.2019 02:00:00 11,8 10,2 10,9 15,0 18 10 - - SSW 1011,3 48 0,0
14.06.2019 01:00:00 12,4 10,5 12,1 15,1 20 11 - - SSW 1011,3 55 0,0
14.06.2019 00:00:00 12,3 10,5 11,5 15,1 16 8 - - SSW 1011,2 48 0,0
13.06.2019 23:00:00 12,0 10,4 11,1 15,1 16 9 - - SW 1011,3 36 0,0
13.06.2019 22:00:00 12,6 11,0 11,9 15,1 21 11 - - SW 1010,7 40 0,0
13.06.2019 21:00:00 13,0 10,4 12,2 15,1 23 12 - - SW 1010,7 42 0,0
13.06.2019 20:00:00 13,8 10,4 13,9 15,1 24 13 - - SW 1010,5 45 0,0
13.06.2019 19:00:00 15,0 9,4 15,9 15,0 24 13 - - SW 1010,1 27 0,0
13.06.2019 18:00:00 15,0 9,1 15,6 14,8 24 13 - - SW 1010,1 28 0,0
13.06.2019 17:00:00 15,7 9,6 17,8 14,7 26 14 - - WSW 1009,9 10 0,0
13.06.2019 16:00:00 15,8 9,5 17,9 14,5 26 14 - - WSW 1009,9 15 0,0
13.06.2019 15:00:00 16,1 8,6 18,1 14,4 29 16 - - SW 1009,8 19 0,0
13.06.2019 14:00:00 15,5 9,6 16,2 14,3 30 16 - - SW 1009,6 23 0,0
13.06.2019 13:00:00 14,4 9,0 15,9 14,3 28 15 - - WSW 1009,5 23 0,0
13.06.2019 12:00:00 15,0 9,8 15,7 14,3 21 11 - - SW 1009,4 20 0,0
13.06.2019 11:00:00 13,0 9,0 - - 18 10 - - WSW - 10 -
13.06.2019 10:00:00 12,2 9,9 12,7 14,3 16 9 - - WSW 1009,4 18 0,0
13.06.2019 09:00:00 11,0 10,1 10,8 14,4 13 7 - - SW 1009,2 10 0,0
13.06.2019 08:00:00 9,2 9,1 7,6 14,4 9 5 - - SSW 1009,1 6 0,0
13.06.2019 07:00:00 7,9 7,6 5,7 14,5 10 6 - - SSW 1009,0 3,9 0,2
13.06.2019 06:00:00 7,5 7,2 5,3 14,6 7 4 - - SW 1008,9 0,8 0,0
13.06.2019 05:00:00 8,1 7,8 5,6 14,7 10 6 - - SSW 1009,1 1,7 0,0
13.06.2019 04:00:00 8,7 8,2 6,6 14,8 8 4 - - SSW 1009,6 6 0,0
13.06.2019 03:00:00 9,1 8,5 7,5 14,9 5 3 - - SW 1010,1 7 0,0
13.06.2019 02:00:00 9,6 8,8 8,5 14,9 5 3 - - W 1010,5 7 0,0
13.06.2019 01:00:00 9,5 9,0 7,0 15,0 5 3 - - WNW 1010,6 0,5 0,0
13.06.2019 00:00:00 9,2 8,6 6,1 15,1 4 2 - - NNW 1010,7 0,4 0,0
12.06.2019 23:00:00 10,3 8,7 8,1 15,1 3 1 - - NNW 1010,5 12 0,0
12.06.2019 22:00:00 11,4 9,1 11,3 15,1 6 4 - - N 1010,2 18 0,0
12.06.2019 21:00:00 12,7 9,0 13,9 15,0 9 5 - - N 1010,1 29 0,0
12.06.2019 20:00:00 13,5 9,9 14,7 14,9 12 6 - - N 1010,0 40 0,0
12.06.2019 19:00:00 13,6 9,0 17,5 14,8 15 8 - - N 1009,9 34 0,0
12.06.2019 18:00:00 14,0 9,8 19,0 14,6 16 9 - - NNE 1010,0 31 0,0
12.06.2019 17:00:00 14,3 9,3 18,6 14,5 15 8 - - N 1009,9 10 0,0
12.06.2019 16:00:00 13,9 9,5 18,3 14,5 16 9 - - N 1009,9 42 0,0
12.06.2019 15:00:00 14,0 9,8 17,6 14,3 17 9 - - N 1009,7 32 0,0
12.06.2019 14:00:00 13,7 10,3 16,0 14,3 14 8 - - N 1009,9 40 0,0
12.06.2019 13:00:00 12,6 9,6 14,8 14,2 16 9 - - N 1010,1 29 0,0
12.06.2019 12:00:00 12,6 10,0 14,5 14,2 16 9 - - N 1010,1 23 0,0
12.06.2019 11:00:00 12,1 9,7 13,8 14,2 16 8 - - NNE 1010,0 30 0,0
12.06.2019 10:00:00 12,1 10,3 12,5 14,2 16 8 - - NNE 1010,2 17 0,0
12.06.2019 09:00:00 11,4 10,3 11,8 14,3 18 10 - - N 1010,3 16 0,0
12.06.2019 08:00:00 10,9 10,3 10,4 14,3 16 9 - - N 1010,4 13 0,2
12.06.2019 07:00:00 10,7 9,9 10,2 14,3 11 6 - - N 1010,3 15 0,0
12.06.2019 06:00:00 10,7 10,1 9,7 14,4 13 7 - - N 1010,6 12 0,0
12.06.2019 05:00:00 10,5 9,9 9,6 14,4 14 8 - - N 1010,6 13 0,8
12.06.2019 04:00:00 11,0 10,5 8,6 14,5 14 7 - - N 1010,9 13 0,0
12.06.2019 03:00:00 10,5 9,9 8,9 14,5 11 6 - - NNE 1011,3 12 0,0
12.06.2019 02:00:00 10,9 9,8 9,9 14,6 16 9 - - NE 1011,7 16 0,0
12.06.2019 01:00:00 11,4 10,3 10,7 14,6 18 10 - - NNE 1012,2 17 0,0
12.06.2019 00:00:00 11,4 10,3 10,0 14,6 20 11 - - NNE 1012,4 19 0,0
11.06.2019 23:00:00 11,6 10,2 11,0 14,7 20 11 - - NNE 1012,2 20 0,0
11.06.2019 22:00:00 12,1 10,7 11,7 14,7 19 10 - - NNE 1011,8 24 0,0
11.06.2019 21:00:00 12,5 10,2 12,7 14,7 27 15 - - NNE 1011,3 27 0,0

tt = Température de l'air
td = dewpoint
tt 5cm = Température de l'air 5cm
tt -20cm = Température de l'air -20cm
ff = Vitesse du vent
fx = gusts
dd = Direction du vent
ppp = reduced air pressure
vv = visibility
rr = Quantités de précipitations

stations d'obs. à proximité